Powrót do katalogu

DELTA 1 DEB

AktywnySSO
NORAD 10646·DEBRIS·🇺🇸 United States

Wystrzelony Jul 29, 1976 z Vandenberg Space Force Base

Loading…

Następne Przeloty (najbliższe 24 godziny)

TLE

ŚwieżeSource: Space-Track

Epoka: Sep 14, 2026, 08:01 UTC

1 10646U 76077G   26257.33458455 -.00000041  00000-0  44654-4 0  9996
2 10646 102.6648 208.0914 0143350 212.1424 304.7244 12.14468757223154

Śledź DELTA 1 DEB w czasie rzeczywistym z AllMySat

Download on the App Store